COSMOS 1275 DEB, 42153

Orbit data source: Space-Track

COSMOS 1275 DEB, 42153 is space debris in LEO originally from a launch on Thu, 04 Jun 1981 UTC launched from the Plesetsk Missile And Space Complex (PKMTR). Debris objects in space refer to the collection of defunct objects orbiting the Earth. Examples of debris include non-operational satellites, rocket bodies, and fragments generated from explosions, collisions, or faulty payload assembly.

Loading next visibility...
Identifier
42153, 1981-053RR
Orbit
LEO
Country
Flag of CISCIS
Related business
Manufacturer
Unknown
Mission
Spacecraft
Bus & Motor
Unknown
Mass
Unknown
Launch date (UTC)
1981-06-04 (45 years ago)
Launch vehicle
Unknown
Launch site
Plesetsk Missile And Space Complex (PKMTR)
Object type
Payload
Rocket body
Debris
Shape & HBR
Unknown shape, 0.1 m
Radar Cross Section
Small (<0.1 m²)

Expand to show TLE details & history
Last TLE update: 3 weeks ago

TLE from 3 weeks ago
0 COSMOS 1275 DEB
1 42153U 81053RR  26122.87433662  .00002623  00000-0  12452-2 0  9993
2 42153  82.8395 174.1077 0037110 355.7044   4.3812 14.18829405622874
Epoch: 2026-05-02T20:59Z
TLE epoch observation values (Epoch: 2026-05-02T20:59:02.683Z)
Latitude
-0.00004°
Longitude
-1.43946°
Altitude
805.599 km
Speed
7.464 km/s
True Right ascension
11h 36m 25s
True Declination
0° 00' 00"
Sunlit
Object was in full shadow at epoch
Visualization orbit readout
Latitude
Unknown
Longitude
Unknown
Altitude
Unknown
Speed
Unknown
Apparent Right ascension
Unknown
Apparent Declination
Unknown
Sunlit
N/A
Visualization observer readout
Local Sidereal Time
06:26:26
Azimuth
Unknown
Elevation
Unknown
Doppler factor
Unknown
Orbital elements
Apogee altitude
853.143 km
Perigee altitude
799.671 km
Semi-major axis
7,204.544 km
Eccentricity
0.00371
Inclination
82.8395°
RAAN
174.1077°
Arg. of periapsis
355.7044°
True anomaly
4.41384°
Mean anomaly
4.3812°
Eccentric anomaly
4.3975°
Mean motion
3.54922 °/min
Orbital period
101.43 mins
BSTAR
0.0012452
Loading maneuver chart data...
Computing Atmospheric mass density...
Loading historical data...
Loading historical data...
Loading historical data...
Loading historical data...
Loading historical data...
Loading historical data...
Loading historical data...

Documentation

Showing up to 5 results
|